Weather History for KPPA - December, 2013

Change the Weather History Date:

Thursday, December 12, 2013

  Actual Average Record
Temperature  
Mean Temperature 34 °F -  
Max Temperature 50 °F 48 °F 73 °F (1968)
Min Temperature 18 °F 25 °F 7 °F (1989)
Degree Days  
Heating Degree Days 31    
Moisture  
Dew Point 19 °F    
Average Humidity 60    
Maximum Humidity 80    
Minimum Humidity 29    
Precipitation  
Precipitation 0.00 in - - ()
Sea Level Pressure  
Sea Level Pressure 30.29 in    
Wind  
Wind Speed 14 mph (SSW)    
Max Wind Speed 24 mph    
Max Gust Speed 33 mph    
Visibility 10 miles    
Events      
Averages and records for this station are not official NWS values.
T = Trace of Precipitation, MM = Missing Value Source: NWS Daily Summary

Daily Weather History Graph

Daily Weather History Graph

Search for Another Location

Airport or City:

Trip Planner

Search our weather history database for the weather conditions in past years. The results will help you decide how hot, cold, wet, or windy it might be!

Date:

Astronomy

Dec. 12, 2013 Rise Set
Actual Time 7:44 AM CST 5:31 PM CST
Civil Twilight 7:16 AM CST 5:59 PM CST
Nautical Twilight 6:44 AM CST 6:31 PM CST
Astronomical Twilight 6:13 AM CST 7:02 PM CST
Moon 2:33 PM CST (12/12) 3:15 AM CST (12/12)
Length of Visible Light 10h 43m
Length of Day
9h 47m
Waxing Gibbous, 80% of the Moon is Illuminated
Dec 12
Waxing Gibbous
Dec 17
Full
Dec 25
Last Quarter
Jan 1
New
Jan 7
First Quarter

Hourly Weather History & Observations

Time (CST) Temp. Windchill Dew Point Humidity Pressure Visibility Wind Dir Wind Speed Gust Speed Precip Events Conditions
12:15 AM 18.3 °F 6.6 °F 13.1 °F 80% 30.50 in 10.0 mi SSW 10.4 mph - N/A   Clear
12:35 AM 18.9 °F 8.0 °F 13.3 °F 79% 30.49 in 10.0 mi South 9.2 mph - N/A   Clear
12:55 AM 19.0 °F 8.2 °F 13.1 °F 78% 30.48 in 10.0 mi South 9.2 mph - N/A   Clear
1:15 AM 19.0 °F 8.2 °F 13.8 °F 80% 30.47 in 10.0 mi South 9.2 mph - N/A   Clear
1:35 AM 21.9 °F 9.8 °F 14.9 °F 74% 30.47 in 10.0 mi South 12.7 mph - N/A   Clear
1:55 AM 22.6 °F 10.1 °F 14.9 °F 72% 30.46 in 10.0 mi SSW 13.8 mph - N/A   Clear
2:15 AM 23.0 °F 10.6 °F 15.4 °F 73% 30.46 in 10.0 mi SSW 13.8 mph - N/A   Clear
2:35 AM 22.1 °F 9.5 °F 15.1 °F 74% 30.45 in 10.0 mi SSW 13.8 mph - N/A   Clear
2:55 AM 22.3 °F 9.7 °F 15.4 °F 75% 30.45 in 10.0 mi SSW 13.8 mph - N/A   Clear
3:15 AM 22.6 °F 10.1 °F 15.6 °F 74% 30.44 in 10.0 mi SSW 13.8 mph - N/A   Clear
3:35 AM 21.4 °F 9.1 °F 14.9 °F 76% 30.43 in 10.0 mi SSW 12.7 mph - N/A   Clear
3:55 AM 22.1 °F 9.5 °F 15.6 °F 76% 30.43 in 10.0 mi SSW 13.8 mph - N/A   Clear
4:15 AM 21.4 °F 9.7 °F 15.4 °F 78% 30.43 in 10.0 mi SSW 11.5 mph - N/A   Clear
4:35 AM 21.6 °F 8.8 °F 15.6 °F 78% 30.41 in 10.0 mi SSW 13.8 mph - N/A   Clear
4:55 AM 21.6 °F 9.9 °F 15.8 °F 78% 30.41 in 10.0 mi South 11.5 mph - N/A   Clear
5:15 AM 21.4 °F 9.1 °F 15.8 °F 79% 30.40 in 10.0 mi South 12.7 mph - N/A   Clear
5:35 AM 21.2 °F 8.9 °F 15.8 °F 80% 30.39 in 10.0 mi South 12.7 mph - N/A   Clear
5:55 AM 21.2 °F 8.9 °F 15.8 °F 80% 30.39 in 10.0 mi South 12.7 mph - N/A   Clear
6:15 AM 23.0 °F 9.2 °F 16.7 °F 77% 30.39 in 10.0 mi SSW 17.3 mph - N/A   Clear
6:35 AM 22.6 °F 10.1 °F 16.2 °F 76% 30.39 in 10.0 mi SSW 13.8 mph - N/A   Clear
6:55 AM 22.1 °F 8.0 °F 16.0 °F 77% 30.38 in 10.0 mi SSW 17.3 mph - N/A   Clear
7:15 AM 22.8 °F 9.4 °F 16.2 °F 76% 30.38 in 10.0 mi SSW 16.1 mph - N/A   Clear
7:35 AM 22.1 °F 9.5 °F 15.8 °F 77% 30.39 in 10.0 mi SSW 13.8 mph - N/A   Clear
7:55 AM 22.1 °F 9.5 °F 15.8 °F 77% 30.39 in 10.0 mi SSW 13.8 mph - N/A   Clear
8:15 AM 22.8 °F 9.9 °F 16.5 °F 77% 30.39 in 10.0 mi SSW 15.0 mph - N/A   Clear
8:35 AM 23.9 °F 12.3 °F 16.9 °F 75% 30.39 in 10.0 mi SSW 12.7 mph - N/A   Clear
8:55 AM 25.7 °F 15.7 °F 17.6 °F 71% 30.39 in 10.0 mi SSW 10.4 mph 18.4 mph N/A   Clear
9:15 AM 27.5 °F 16.8 °F 18.3 °F 68% 30.39 in 10.0 mi South 12.7 mph - N/A   Clear
9:35 AM 28.9 °F 18.2 °F 18.5 °F 65% 30.39 in 10.0 mi SSW 13.8 mph 19.6 mph N/A   Clear
9:55 AM 30.6 °F 21.8 °F 19.0 °F 62% 30.39 in 10.0 mi SSW 10.4 mph 19.6 mph N/A   Clear
10:15 AM 32.5 °F 23.7 °F 19.6 °F 59% 30.40 in 10.0 mi SSW 11.5 mph - N/A   Clear
10:35 AM 34.5 °F 25.3 °F 20.1 °F 56% 30.40 in 10.0 mi SSW 13.8 mph - N/A   Clear
10:55 AM 36.5 °F 28.7 °F 20.1 °F 52% 30.39 in 10.0 mi SSW 11.5 mph - N/A   Clear
11:15 AM 37.6 °F 28.8 °F 20.5 °F 50% 30.39 in 10.0 mi SSW 15.0 mph - N/A   Clear
11:35 AM 39.4 °F 31.4 °F 20.8 °F 47% 30.37 in 10.0 mi SSW 13.8 mph - N/A   Clear
11:55 AM 41.5 °F 33.5 °F 20.8 °F 44% 30.35 in 10.0 mi SSW 16.1 mph 20.7 mph N/A   Clear
12:15 PM 42.1 °F 34.5 °F 20.1 °F 42% 30.34 in 10.0 mi SSW 15.0 mph 19.6 mph N/A   Clear
12:35 PM 41.7 °F 34.1 °F 20.3 °F 42% 30.32 in 10.0 mi SSW 15.0 mph - N/A   Clear
12:55 PM 41.9 °F 35.0 °F 20.3 °F 42% 30.30 in 10.0 mi SSW 12.7 mph - N/A   Clear
1:15 PM 40.5 °F 31.5 °F 20.3 °F 45% 30.28 in 10.0 mi SSW 18.4 mph - N/A   Clear
1:35 PM 42.4 °F 34.4 °F 20.8 °F 42% 30.27 in 10.0 mi SSW 17.3 mph 26.5 mph N/A   Clear
1:55 PM 42.8 °F 34.5 °F 20.3 °F 41% 30.26 in 10.0 mi SSW 18.4 mph 23.0 mph N/A   Clear
2:15 PM 42.1 °F 33.9 °F 20.5 °F 42% 30.25 in 10.0 mi SSW 17.3 mph - N/A   Clear
2:35 PM 44.4 °F 36.6 °F 20.1 °F 38% 30.24 in 10.0 mi SSW 18.4 mph - N/A   Clear
2:55 PM 50.2 °F - 19.9 °F 30% 30.22 in 10.0 mi SSW 17.3 mph - N/A   Clear
3:15 PM 50.2 °F - 18.9 °F 29% 30.21 in 10.0 mi SSW 18.4 mph 24.2 mph N/A   Clear
3:35 PM 44.6 °F 37.2 °F 20.3 °F 38% 30.22 in 10.0 mi SSW 17.3 mph 24.2 mph N/A   Clear
3:55 PM 44.1 °F 36.2 °F 20.8 °F 40% 30.21 in 10.0 mi SSW 18.4 mph 24.2 mph N/A   Clear
4:15 PM 43.2 °F 34.5 °F 21.0 °F 41% 30.21 in 10.0 mi SSW 20.7 mph 25.3 mph N/A   Clear
4:35 PM 41.9 °F 34.0 °F 21.2 °F 44% 30.21 in 10.0 mi South 16.1 mph - N/A   Clear
4:55 PM 39.6 °F 31.7 °F 21.2 °F 48% 30.19 in 10.0 mi South 13.8 mph 23.0 mph N/A   Clear
5:15 PM 37.2 °F 27.6 °F 21.2 °F 52% 30.18 in 10.0 mi South 17.3 mph - N/A   Scattered Clouds
5:35 PM 37.4 °F 27.5 °F 21.6 °F 53% 30.16 in 10.0 mi South 18.4 mph - N/A   Mostly Cloudy
5:55 PM 36.5 °F 27.4 °F 21.6 °F 55% 30.16 in 10.0 mi South 15.0 mph 24.2 mph N/A   Mostly Cloudy
6:15 PM 36.0 °F 26.0 °F 21.6 °F 56% 30.16 in 10.0 mi South 17.3 mph - N/A   Scattered Clouds
6:35 PM 35.6 °F 25.2 °F 21.7 °F 57% 30.14 in 10.0 mi South 18.4 mph 24.2 mph N/A   Clear
6:55 PM 36.1 °F 27.7 °F 21.7 °F 56% 30.14 in 10.0 mi South 12.7 mph - N/A   Scattered Clouds
7:15 PM 37.6 °F 29.1 °F 21.9 °F 53% 30.13 in 10.0 mi South 13.8 mph - N/A   Overcast
7:35 PM 38.3 °F 29.7 °F 22.1 °F 52% 30.14 in 10.0 mi South 15.0 mph 23.0 mph N/A   Overcast
7:55 PM 38.8 °F 28.8 °F 22.1 °F 51% 30.12 in 10.0 mi South 20.7 mph 25.3 mph N/A   Mostly Cloudy
8:15 PM 38.8 °F 29.1 °F 21.9 °F 51% 30.11 in 10.0 mi South 19.6 mph - N/A   Overcast
8:35 PM 38.7 °F 27.8 °F 21.9 °F 51% 30.11 in 10.0 mi South 24.2 mph 33.4 mph N/A   Mostly Cloudy
8:55 PM 37.8 °F 27.4 °F 22.1 °F 53% 30.11 in 10.0 mi South 20.7 mph 27.6 mph N/A   Scattered Clouds
9:15 PM 37.4 °F 28.2 °F 22.6 °F 55% 30.12 in 10.0 mi SSW 16.1 mph - N/A   Scattered Clouds
9:35 PM 37.8 °F 31.8 °F 23.0 °F 55% 30.10 in 10.0 mi SSW 8.1 mph - N/A   Overcast
9:55 PM 37.8 °F 29.8 °F 23.4 °F 56% 30.09 in 10.0 mi SSW 12.7 mph 17.3 mph N/A   Overcast
10:15 PM 37.6 °F 29.6 °F 23.9 °F 58% 30.09 in 10.0 mi SSW 12.7 mph - N/A   Overcast
10:35 PM 38.1 °F 29.1 °F 24.6 °F 58% 30.06 in 10.0 mi South 16.1 mph 21.9 mph N/A   Overcast
10:55 PM 38.3 °F 29.3 °F 25.3 °F 60% 30.05 in 10.0 mi SSW 16.1 mph 21.9 mph N/A   Mostly Cloudy
11:15 PM 38.3 °F 28.4 °F 25.7 °F 61% 30.05 in 10.0 mi South 19.6 mph 25.3 mph N/A   Scattered Clouds
11:35 PM 39.2 °F 29.6 °F 26.6 °F 61% 30.04 in 10.0 mi SSW 19.6 mph 26.5 mph N/A   Mostly Cloudy
11:55 PM 39.4 °F 30.7 °F 27.5 °F 62% 30.04 in 10.0 mi SSW 16.1 mph - N/A   Overcast